Location: Gleizolles
(44.4833°N, 6.7667°E)
Time: 22:06:52
(UTC+00:00)

A-11 Canister half - Pass Details

Date: 26 June 2024
Orbit: 1524 x 1684 km, 47.3° (Epoch: 18 July)

Event Time Altitude Azimuth Distance (km) Brightness Sun altitude
Rises 16:21:04 0° 291° (WNW) 4,693 12.6 29.2°
Reaches altitude 10° 16:24:07 10° 290° (WNW) 3,700 12.5 28.7°
Maximum altitude 16:33:23 76° 207° (SSW) 1,565 9.6 27.0°
Drops below altitude 10° 16:42:41 10° 124° (ESE) 3,710 10.6 25.4°
Sets 16:45:45 0° 122° (ESE) 4,706 11.0 24.8°
